Time,TemperatureF,DewpointF,PressureIn,WindDirection,WindDirectionDegrees,WindSpeedMPH,WindSpeedGustMPH,Humidity,HourlyPrecipIn,Conditions,Clouds,dailyrainin,SoftwareType,DateUTC
2014-07-11 00:08:00,72.9,71.0,30.16,NW,319,11.0,13.0,94,0.34,,,0.14,weatherlink.com 1.10,2014-07-11 04:08:00,
2014-07-11 00:23:00,72.6,71.0,30.14,WSW,252,0.0,10.0,94,0.46,,,0.27,weatherlink.com 1.10,2014-07-11 04:23:00,
2014-07-11 00:38:00,72.6,71.0,30.14,WNW,298,1.0,4.0,95,0.47,,,0.28,weatherlink.com 1.10,2014-07-11 04:38:00,
2014-07-11 00:53:00,72.6,71.0,30.14,WNW,296,0.0,2.0,95,0.34,,,0.28,weatherlink.com 1.10,2014-07-11 04:53:00,
2014-07-11 01:08:00,72.5,71.0,30.14,WNW,284,0.0,4.0,95,0.14,,,0.28,weatherlink.com 1.10,2014-07-11 05:08:00,
2014-07-11 01:23:00,72.5,71.0,30.14,WNW,284,0.0,1.0,95,0.01,,,0.28,weatherlink.com 1.10,2014-07-11 05:23:00,
2014-07-11 01:38:00,72.9,71.0,30.14,SE,131,2.0,2.0,95,0.00,,,0.28,weatherlink.com 1.10,2014-07-11 05:38:00,
2014-07-11 01:53:00,73.3,72.0,30.14,SW,231,0.0,2.0,95,0.00,,,0.28,weatherlink.com 1.10,2014-07-11 05:53:00,
2014-07-11 02:08:00,73.4,72.0,30.14,WSW,248,3.0,9.0,95,0.05,,,0.33,weatherlink.com 1.10,2014-07-11 06:08:00,
2014-07-11 02:23:00,73.8,73.0,30.13,WSW,250,5.0,8.0,96,0.07,,,0.35,weatherlink.com 1.10,2014-07-11 06:23:00,
2014-07-11 02:38:00,73.5,72.0,30.13,West,276,2.0,4.0,95,0.08,,,0.36,weatherlink.com 1.10,2014-07-11 06:38:00,
2014-07-11 02:53:00,73.2,72.0,30.12,WNW,283,1.0,3.0,96,0.11,,,0.39,weatherlink.com 1.10,2014-07-11 06:53:00,
2014-07-11 03:08:00,73.3,72.0,30.13,WSW,238,1.0,2.0,96,0.09,,,0.42,weatherlink.com 1.10,2014-07-11 07:08:00,
2014-07-11 03:23:00,73.2,72.0,30.12,West,265,0.0,2.0,96,0.09,,,0.44,weatherlink.com 1.10,2014-07-11 07:23:00,
2014-07-11 03:39:00,73.2,72.0,30.12,West,264,0.0,1.0,96,0.08,,,0.44,weatherlink.com 1.10,2014-07-11 07:39:00,
2014-07-11 03:54:00,73.9,73.0,30.12,SSW,210,5.0,5.0,97,0.05,,,0.44,weatherlink.com 1.10,2014-07-11 07:54:00,
2014-07-11 04:09:00,73.9,73.0,30.12,SW,226,3.0,7.0,96,0.02,,,0.44,weatherlink.com 1.10,2014-07-11 08:09:00,
2014-07-11 04:24:00,73.9,73.0,30.13,WSW,244,3.0,5.0,96,0.00,,,0.44,weatherlink.com 1.10,2014-07-11 08:24:00,
2014-07-11 04:39:00,74.6,73.0,30.13,WSW,246,7.0,11.0,96,0.00,,,0.44,weatherlink.com 1.10,2014-07-11 08:39:00,
2014-07-11 04:54:00,74.9,73.0,30.12,SW,228,6.0,14.0,95,0.02,,,0.46,weatherlink.com 1.10,2014-07-11 08:54:00,
2014-07-11 05:09:00,75.0,74.0,30.12,WSW,239,7.0,9.0,95,0.05,,,0.49,weatherlink.com 1.10,2014-07-11 09:09:00,
2014-07-11 05:24:00,75.0,74.0,30.12,WSW,246,1.0,4.0,96,0.05,,,0.49,weatherlink.com 1.10,2014-07-11 09:24:00,
2014-07-11 05:39:00,74.8,74.0,30.12,WNW,286,0.0,2.0,96,0.05,,,0.49,weatherlink.com 1.10,2014-07-11 09:39:00,
2014-07-11 05:54:00,74.6,73.0,30.13,NW,307,2.0,3.0,96,0.03,,,0.49,weatherlink.com 1.10,2014-07-11 09:54:00,
2014-07-11 06:09:00,74.4,73.0,30.13,WNW,285,1.0,2.0,96,0.01,,,0.50,weatherlink.com 1.10,2014-07-11 10:09:00,
2014-07-11 06:24:00,74.3,73.0,30.13,WNW,299,0.0,2.0,97,0.01,,,0.50,weatherlink.com 1.10,2014-07-11 10:24:00,
2014-07-11 06:39:00,74.2,73.0,30.14,WNW,288,0.0,2.0,97,0.01,,,0.50,weatherlink.com 1.10,2014-07-11 10:39:00,
2014-07-11 06:54:00,74.2,73.0,30.14,WNW,295,0.0,2.0,97,0.01,,,0.50,weatherlink.com 1.10,2014-07-11 10:54:00,
2014-07-11 07:09:00,74.7,74.0,30.15,WSW,245,1.0,3.0,97,0.00,,,0.50,weatherlink.com 1.10,2014-07-11 11:09:00,
2014-07-11 07:24:00,75.2,74.0,30.15,WSW,254,0.0,4.0,97,0.00,,,0.50,weatherlink.com 1.10,2014-07-11 11:24:00,
2014-07-11 07:39:00,75.2,74.0,30.15,WSW,252,0.0,1.0,96,0.00,,,0.50,weatherlink.com 1.10,2014-07-11 11:39:00,
2014-07-11 07:54:00,75.0,74.0,30.16,WSW,241,2.0,3.0,96,0.00,,,0.50,weatherlink.com 1.10,2014-07-11 11:54:00,
2014-07-11 08:09:00,75.3,74.0,30.16,WSW,255,0.0,2.0,97,0.00,,,0.50,weatherlink.com 1.10,2014-07-11 12:09:00,
2014-07-11 08:24:00,75.6,74.0,30.17,SW,221,1.0,3.0,95,0.00,,,0.50,weatherlink.com 1.10,2014-07-11 12:24:00,
2014-07-11 08:44:00,75.5,74.0,30.18,WNW,286,1.0,3.0,95,0.00,,,0.00,weatherlink.com 1.10,2014-07-11 12:44:00,
2014-07-11 08:58:00,75.8,74.0,30.18,WNW,289,0.0,3.0,95,0.00,,,0.00,weatherlink.com 1.10,2014-07-11 12:58:00,
2014-07-11 09:13:00,75.9,74.0,30.18,WNW,288,0.0,2.0,95,0.00,,,0.00,weatherlink.com 1.10,2014-07-11 13:13:00,
2014-07-11 09:28:00,76.9,75.0,30.19,West,276,0.0,2.0,94,0.00,,,0.00,weatherlink.com 1.10,2014-07-11 13:28:00,
2014-07-11 09:43:00,77.1,75.0,30.19,WSW,240,1.0,2.0,93,0.00,,,0.00,weatherlink.com 1.10,2014-07-11 13:43:00,
2014-07-11 09:58:00,77.9,76.0,30.19,NW,311,1.0,3.0,92,0.00,,,0.00,weatherlink.com 1.10,2014-07-11 13:58:00,
2014-07-11 10:13:00,77.7,75.0,30.19,WSW,239,1.0,3.0,90,0.00,,,0.00,weatherlink.com 1.10,2014-07-11 14:13:00,
2014-07-11 10:28:00,78.9,76.0,30.19,West,266,0.0,3.0,89,0.00,,,0.00,weatherlink.com 1.10,2014-07-11 14:28:00,
2014-07-11 10:43:00,80.7,78.0,30.19,SW,231,0.0,1.0,90,0.00,,,0.00,weatherlink.com 1.10,2014-07-11 14:43:00,
2014-07-11 10:58:00,80.3,76.0,30.20,WSW,240,4.0,5.0,85,0.00,,,0.00,weatherlink.com 1.10,2014-07-11 14:58:00,
2014-07-11 11:13:00,81.4,77.0,30.19,SSW,193,2.0,4.0,85,0.00,,,0.00,weatherlink.com 1.10,2014-07-11 15:13:00,
2014-07-11 11:28:00,82.7,76.0,30.18,South,179,3.0,5.0,81,0.00,,,0.00,weatherlink.com 1.10,2014-07-11 15:28:00,
2014-07-11 11:43:00,82.1,75.0,30.19,SSW,194,2.0,6.0,78,0.00,,,0.00,weatherlink.com 1.10,2014-07-11 15:43:00,
2014-07-11 11:58:00,82.1,75.0,30.19,SW,216,6.0,8.0,79,0.00,,,0.00,weatherlink.com 1.10,2014-07-11 15:58:00,
2014-07-11 12:13:00,81.6,75.0,30.18,SSE,150,4.0,8.0,79,0.00,,,0.00,weatherlink.com 1.10,2014-07-11 16:13:00,
2014-07-11 12:28:00,81.8,75.0,30.18,SW,214,6.0,8.0,79,0.00,,,0.00,weatherlink.com 1.10,2014-07-11 16:28:00,
2014-07-11 12:43:00,81.4,75.0,30.18,SSW,212,8.0,10.0,80,0.00,,,0.00,weatherlink.com 1.10,2014-07-11 16:43:00,
2014-07-11 12:58:00,81.0,74.0,30.18,SSW,207,8.0,12.0,80,0.00,,,0.00,weatherlink.com 1.10,2014-07-11 16:58:00,
2014-07-11 13:13:00,81.3,73.0,30.18,WSW,247,3.0,11.0,77,0.00,,,0.00,weatherlink.com 1.10,2014-07-11 17:13:00,
2014-07-11 13:28:00,81.4,74.0,30.18,SW,235,5.0,7.0,77,0.00,,,0.00,weatherlink.com 1.10,2014-07-11 17:28:00,
2014-07-11 13:43:00,81.2,73.0,30.18,SW,224,4.0,8.0,77,0.00,,,0.00,weatherlink.com 1.10,2014-07-11 17:43:00,
2014-07-11 13:58:00,81.0,74.0,30.18,SW,231,5.0,9.0,78,0.00,,,0.00,weatherlink.com 1.10,2014-07-11 17:58:00,
2014-07-11 14:14:00,80.6,73.0,30.18,SW,235,4.0,10.0,78,0.00,,,0.00,weatherlink.com 1.10,2014-07-11 18:14:00,
2014-07-11 14:28:00,80.8,74.0,30.18,West,261,2.0,6.0,79,0.00,,,0.00,weatherlink.com 1.10,2014-07-11 18:28:00,
2014-07-11 14:44:00,80.6,74.0,30.18,WSW,239,5.0,10.0,81,0.00,,,0.00,weatherlink.com 1.10,2014-07-11 18:44:00,
2014-07-11 14:59:00,80.4,74.0,30.18,SSW,210,7.0,9.0,81,0.00,,,0.00,weatherlink.com 1.10,2014-07-11 18:59:00,
2014-07-11 15:14:00,80.7,74.0,30.19,SW,219,5.0,8.0,81,0.00,,,0.00,weatherlink.com 1.10,2014-07-11 19:14:00,
2014-07-11 15:29:00,80.7,74.0,30.18,WSW,240,6.0,9.0,81,0.00,,,0.00,weatherlink.com 1.10,2014-07-11 19:29:00,
2014-07-11 15:44:00,81.2,75.0,30.19,SSW,212,5.0,7.0,80,0.00,,,0.00,weatherlink.com 1.10,2014-07-11 19:44:00,
2014-07-11 15:59:00,81.1,74.0,30.19,SW,214,7.0,8.0,80,0.00,,,0.00,weatherlink.com 1.10,2014-07-11 19:59:00,
2014-07-11 16:14:00,80.7,74.0,30.18,SSW,212,4.0,10.0,80,0.00,,,0.00,weatherlink.com 1.10,2014-07-11 20:14:00,
2014-07-11 16:29:00,80.7,75.0,30.18,WSW,237,5.0,10.0,82,0.00,,,0.00,weatherlink.com 1.10,2014-07-11 20:29:00,
2014-07-11 16:44:00,80.4,75.0,30.18,SW,235,3.0,8.0,82,0.00,,,0.00,weatherlink.com 1.10,2014-07-11 20:44:00,
2014-07-11 16:59:00,80.2,74.0,30.17,SW,229,4.0,5.0,81,0.00,,,0.00,weatherlink.com 1.10,2014-07-11 20:59:00,
2014-07-11 17:14:00,80.3,74.0,30.17,WNW,283,0.0,8.0,81,0.00,,,0.00,weatherlink.com 1.10,2014-07-11 21:14:00,
2014-07-11 17:29:00,79.9,74.0,30.17,West,262,1.0,7.0,81,0.00,,,0.00,weatherlink.com 1.10,2014-07-11 21:29:00,
2014-07-11 17:44:00,79.8,74.0,30.17,SW,222,4.0,8.0,82,0.00,,,0.00,weatherlink.com 1.10,2014-07-11 21:44:00,
2014-07-11 17:59:00,79.7,74.0,30.16,WSW,239,0.0,4.0,82,0.00,,,0.00,weatherlink.com 1.10,2014-07-11 21:59:00,
2014-07-11 18:14:00,79.7,74.0,30.16,SW,231,0.0,4.0,82,0.00,,,0.00,weatherlink.com 1.10,2014-07-11 22:14:00,
2014-07-11 18:29:00,79.7,74.0,30.17,WNW,283,1.0,4.0,82,0.00,,,0.00,weatherlink.com 1.10,2014-07-11 22:29:00,
2014-07-11 18:44:00,79.6,74.0,30.17,WSW,252,1.0,4.0,83,0.00,,,0.00,weatherlink.com 1.10,2014-07-11 22:44:00,
2014-07-11 18:59:00,79.8,74.0,30.17,West,261,0.0,3.0,83,0.00,,,0.00,weatherlink.com 1.10,2014-07-11 22:59:00,
2014-07-11 19:14:00,79.7,75.0,30.17,WSW,255,1.0,3.0,85,0.00,,,0.00,weatherlink.com 1.10,2014-07-11 23:14:00,
2014-07-11 19:29:00,79.2,74.0,30.17,West,267,1.0,4.0,85,0.00,,,0.00,weatherlink.com 1.10,2014-07-11 23:29:00,
2014-07-11 19:44:00,79.0,75.0,30.17,WSW,247,1.0,6.0,86,0.00,,,0.00,weatherlink.com 1.10,2014-07-11 23:44:00,
2014-07-11 19:59:00,78.8,74.0,30.18,West,271,2.0,3.0,86,0.00,,,0.00,weatherlink.com 1.10,2014-07-11 23:59:00,
2014-07-11 20:14:00,78.7,75.0,30.18,WNW,301,1.0,3.0,87,0.00,,,0.00,weatherlink.com 1.10,2014-07-12 00:14:00,
2014-07-11 20:29:00,78.5,74.0,30.19,NNW,330,0.0,3.0,87,0.00,,,0.00,weatherlink.com 1.10,2014-07-12 00:29:00,
2014-07-11 20:44:00,78.1,74.0,30.19,North,4,0.0,2.0,88,0.00,,,0.00,weatherlink.com 1.10,2014-07-12 00:44:00,
2014-07-11 20:59:00,77.8,74.0,30.19,West,262,0.0,3.0,89,0.00,,,0.00,weatherlink.com 1.10,2014-07-12 00:59:00,
2014-07-11 21:14:00,77.6,75.0,30.19,West,274,0.0,2.0,90,0.00,,,0.00,weatherlink.com 1.10,2014-07-12 01:14:00,
2014-07-11 21:29:00,77.5,74.0,30.19,NW,305,1.0,2.0,90,0.00,,,0.00,weatherlink.com 1.10,2014-07-12 01:29:00,
2014-07-11 21:44:00,77.4,75.0,30.20,WNW,297,1.0,2.0,91,0.00,,,0.00,weatherlink.com 1.10,2014-07-12 01:44:00,
2014-07-11 21:59:00,77.1,74.0,30.21,NNW,344,0.0,3.0,91,0.00,,,0.00,weatherlink.com 1.10,2014-07-12 01:59:00,
2014-07-11 22:14:00,76.6,74.0,30.21,North,354,1.0,3.0,91,0.00,,,0.00,weatherlink.com 1.10,2014-07-12 02:14:00,
2014-07-11 22:29:00,76.3,74.0,30.22,NNE,22,1.0,2.0,92,0.00,,,0.00,weatherlink.com 1.10,2014-07-12 02:29:00,